Date,TemperatureHighF,TemperatureAvgF,TemperatureLowF,DewpointHighF,DewpointAvgF,DewpointLowF,HumidityHigh,HumidityAvg,HumidityLow,PressureMaxIn,PressureMinIn,WindSpeedMaxMPH,WindSpeedAvgMPH,GustSpeedMaxMPH,PrecipitationSumIn
2013-1-1,55,43,34,40,37,32,95,81,51,30.26,30.19,1,0,9,0.01
2013-1-2,62,42,30,39,34,28,97,78,40,30.23,30.11,2,0,5,0.01
2013-1-3,62,40,30,42,35,28,96,83,42,30.25,30.14,2,0,5,0.01
2013-1-4,62,44,33,42,37,31,96,79,41,30.27,30.15,1,0,8,0.01
2013-1-5,56,46,35,48,42,33,95,88,72,30.24,30.05,2,0,12,0.07
2013-1-6,49,46,39,47,44,37,96,93,83,30.17,30.03,3,0,9,0.16
2013-1-7,60,46,36,50,42,35,97,89,69,30.24,30.13,2,0,5,0.02
2013-1-8,64,48,39,51,44,38,97,86,58,30.22,30.10,3,0,6,0.01
2013-1-9,41,41,41,39,39,39,94,94,94,30.12,30.12,0,0,1,0.00
2013-1-13,52,42,31,34,28,18,92,60,28,30.24,30.14,3,0,8,0.00
2013-1-14,53,39,29,34,24,17,89,60,25,30.38,30.19,3,0,8,0.00
2013-1-15,56,41,29,34,29,25,91,67,33,30.45,30.37,3,0,6,0.00
2013-1-16,61,42,30,39,32,28,94,73,33,30.41,30.23,2,0,6,0.00
2013-1-17,68,45,30,40,35,28,95,72,33,30.23,30.11,2,0,5,0.01
2013-1-18,69,48,33,43,37,31,94,71,34,30.20,30.09,3,0,5,0.01
2013-1-19,68,48,32,43,37,30,94,70,36,30.22,30.12,3,0,5,0.00
2013-1-20,72,48,33,42,36,31,94,69,26,30.20,30.09,1,-7,4,0.00
2013-1-21,69,47,32,43,36,29,94,71,30,30.15,30.04,1,0,8,0.00
2013-1-22,63,48,35,44,39,33,94,74,41,30.07,29.97,2,0,5,0.00
2013-1-23,54,49,45,50,45,40,95,87,77,30.06,29.93,1,0,5,0.06
2013-1-24,58,53,50,53,51,48,97,91,81,30.16,30.03,1,0,3,0.06
2013-1-25,65,56,50,57,53,48,96,89,71,30.16,30.01,3,0,7,0.02
2013-1-26,57,50,44,49,44,39,96,81,55,30.07,29.98,7,1,14,0.01
2013-1-27,56,48,40,42,39,29,91,73,37,30.15,30.06,4,1,10,0.00
2013-1-28,57,48,40,44,41,37,93,77,58,30.27,30.13,5,1,12,0.00
2013-1-29,60,48,39,46,42,37,94,80,56,30.33,30.24,5,1,9,0.00
2013-1-30,70,52,39,46,41,37,94,71,37,30.31,30.22,3,0,6,0.01
2013-1-31,68,53,36,47,43,34,95,72,45,30.26,30.14,2,0,9,0.00
2013-2-1,69,51,37,50,44,35,96,77,46,30.18,30.08,2,0,6,0.00
2013-2-2,59,48,42,51,45,40,94,88,74,30.27,30.18,2,0,6,0.00
2013-2-3,60,49,40,47,43,38,94,81,59,30.23,30.11,3,0,9,0.01
2013-2-4,59,47,39,50,44,37,96,90,71,30.16,30.04,3,0,7,0.01
2013-2-5,56,50,44,48,44,42,95,82,72,30.12,30.06,6,1,14,0.00
2013-2-6,47,45,42,43,41,39,89,87,86,30.13,30.12,1,0,2,0.00
2013-11-8,66,61,55,55,50,45,72,68,65,30.04,29.95,327,1,327,0.00
2013-11-9,71,59,46,54,47,-100,93,69,48,30.02,29.94,2,0,5,0.00
2013-11-10,66,51,41,54,47,39,97,86,62,30.10,30.01,2,0,7,0.01
2013-11-11,65,56,47,53,50,46,95,83,58,30.14,30.05,2,0,7,0.01
2013-11-12,74,59,49,54,50,45,90,75,47,30.24,30.12,3,0,7,0.00
2013-11-13,76,57,44,57,49,42,95,79,46,30.23,30.08,2,0,6,0.00
2013-11-14,65,54,47,56,50,44,96,85,67,30.10,29.87,4,0,10,0.00
2013-11-15,67,52,41,47,42,38,95,71,37,29.87,29.71,3,0,8,0.00
2013-11-16,66,49,39,50,42,-100,95,80,53,29.91,29.76,6,1,10,0.00
2013-11-17,64,50,40,51,45,39,97,83,59,30.06,29.91,3,0,10,0.01
2013-11-18,62,49,40,50,44,38,96,84,58,30.13,30.06,4,0,10,0.01
2013-11-19,64,55,46,57,52,44,96,88,65,30.09,29.92,1,0,7,0.47
2013-11-20,62,56,48,60,54,47,97,95,84,29.92,29.83,5,0,10,0.98
2013-11-21,54,52,49,48,35,28,97,58,36,29.98,29.88,3,1,9,0.02
2013-11-22,72,55,38,37,29,20,80,42,18,30.01,29.88,5,0,12,0.01
2013-11-23,70,50,38,44,36,-100,90,66,29,30.08,29.94,1,0,6,0.00
2013-11-24,66,49,37,47,41,35,96,77,45,30.22,30.08,2,0,5,0.00
2013-11-25,67,49,36,47,42,34,96,78,42,30.30,30.22,4,0,6,0.01
2013-11-26,64,51,40,48,44,38,96,79,51,30.24,30.00,1,0,4,0.01
2013-11-27,65,51,39,49,44,37,96,80,52,30.01,29.81,2,0,5,0.00
2013-11-28,70,54,44,49,45,42,94,75,42,30.05,29.84,3,0,6,0.00
2013-11-29,71,51,39,50,43,37,95,77,40,30.19,30.05,2,0,5,0.00
2013-11-30,70,50,39,53,43,-100,96,81,45,30.24,30.16,2,0,6,0.00
2013-12-1,71,51,39,53,44,37,97,81,49,30.32,30.19,2,0,5,0.01
2013-12-2,68,50,39,54,46,37,97,86,61,30.21,29.96,4,0,10,0.01
2013-12-3,54,49,35,51,41,32,95,74,52,29.96,29.84,8,2,17,0.01
2013-12-4,56,40,30,33,29,21,94,69,31,30.06,29.92,2,0,6,0.00
2013-12-5,53,38,27,29,24,16,93,63,26,30.16,30.06,2,0,6,0.00
2013-12-6,56,43,31,48,36,27,95,78,44,30.17,29.90,6,1,13,0.23
2013-12-7,50,42,32,47,32,-100,94,72,44,30.22,29.91,7,2,19,0.21
2013-12-8,49,35,27,29,27,23,94,74,41,30.31,30.21,2,0,6,0.00
2013-12-9,55,37,26,32,24,18,90,64,30,30.40,30.30,3,0,8,0.00
2013-12-10,56,39,26,35,29,23,94,70,37,30.39,30.19,2,0,7,0.01
2013-12-11,61,41,29,36,31,27,94,71,31,30.23,30.15,2,0,5,0.01
2013-12-12,64,42,29,40,33,27,94,75,35,30.25,30.14,2,0,5,0.00
2013-12-13,62,43,31,45,36,29,95,80,44,30.32,30.21,2,0,6,0.00
2013-12-14,66,44,32,42,34,-100,95,73,35,30.38,30.29,2,0,6,0.01
2013-12-15,65,45,32,42,36,30,94,76,38,30.35,30.21,2,0,5,0.01
2013-12-16,73,50,36,42,37,33,95,68,29,30.22,30.09,1,0,5,0.00
2013-12-17,66,48,37,46,40,35,92,75,43,30.15,30.01,1,0,3,0.00
2013-12-18,61,48,38,49,43,36,93,84,63,30.01,29.78,3,0,6,0.00
2013-12-19,58,49,39,44,39,26,94,70,42,29.92,29.71,7,1,22,0.00
2013-12-20,64,46,32,32,24,11,86,50,14,29.99,29.91,3,0,6,0.00
2013-12-21,64,46,36,50,38,-100,93,77,58,30.06,29.95,3,0,9,0.00
2013-12-22,72,50,36,49,39,35,97,72,30,30.26,30.05,3,0,7,0.00
2013-12-23,64,48,36,46,40,34,95,78,45,30.36,30.26,3,0,7,0.00
2013-12-24,74,50,37,48,40,35,95,74,33,30.32,30.18,1,0,5,0.01
2013-12-25,70,48,35,45,39,33,94,73,37,30.27,30.16,2,0,5,0.01
2013-12-26,73,50,34,48,40,32,95,73,31,30.24,30.13,3,0,6,0.00
2013-12-27,63,45,34,46,40,32,95,83,49,30.21,30.09,1,0,4,0.00
2013-12-28,67,46,33,44,34,-100,96,70,28,30.13,30.01,2,0,4,0.01
2013-12-29,72,51,36,35,29,20,81,51,17,30.15,30.06,2,0,6,0.00
2013-12-30,65,46,33,41,35,29,92,69,33,30.24,30.15,2,0,6,0.00
2013-12-31,61,44,34,47,39,32,94,83,57,30.25,30.13,4,0,8,0.00
2014-1-1,62,46,33,46,39,31,95,80,55,30.19,30.10,2,0,5,0.00
2014-1-2,71,50,35,43,38,33,95,68,29,30.16,30.03,2,0,5,0.00